User: anonymous   Login
Location: Columbia
(38.9520°N, 92.3340°W)
Time: 16:27:31
(UTC-05:00)
Language:

Iridium 22 - Orbit

View from above orbital plane
View from above orbital plane
View from above satellite
View from above satellite

Ground track
Ground track

The orbit data is extracted from the following two-line orbital elements,

1 24907U 97043E   15212.48257184  .00000050  00000-0  10896-4 0  9998
2 24907 086.3995 183.0748 0002383 086.5305 028.9105 14.34217473939404
Epoch (UTC): 31 July 2015 11:34:54
Eccentricity: 0.0002383
inclination: 86.3995°
perigee height: 776 km
apogee height: 779 km
right ascension of ascending node: 183.0748°
argument of perigee: 86.5305°
revolutions per day: 14.34217473
mean anomaly at epoch: 28.9105°
orbit number at epoch: 93940

The dashed part of the orbit path shows where the satellite is in the earth's shadow,  

DLR